Regional Weather Roundup
Issued by NWS Sterling, VA

Home | Current Version | Previous Version | Text Only | Print | Product List | Glossary Off
Versions: 1 2 3 4 5 6 7 8 9 10 11 12 13 14 15 16 17 18 19 20 21 22 23 24 25 26 27 28 29 30 31 32 33 34 35 36 37 38 39 40 41 42 43 44 45 46 47 48 49 50

144
ASUS41 KLWX 281811
RWRLWX

REGIONAL WEATHER ROUNDUP
NATIONAL WEATHER SERVICE BALTIMORE MD/WASHINGTON DC
200 PM EDT THU JUL 28 2016

Note: "FAIR" indicates few or no clouds below 12,000 feet
with no significant weather and/or obstructions to visibility.
 TC=TEMPERATURE CELSIUS

 * =Non NWS site. Station does not report precipitation (e.g. rain,
    snow, etc.), thunder, or fog.

DCZ001-MDZ009-015-VAZ040>042-051-053>054-281900-
WASHINGTON METRO

CITY           SKY/WX    TMP DP  RH WIND       PRES   REMARKS
WASHINGTON NAT FAIR      91  75  59 S9        29.85F HX 101
DULLES         PTSUNNY   89  72  56 S5        29.86S HX  96
FT BELVOIR     FAIR      91  74  57 VRB6      29.84F HX  99
QUANTICO       PTSUNNY   87  75  67 S6        29.86F HX  96
COLLEGE PARK*  FAIR      90  73  58 SW8       29.84F HX  98
LEESBURG*      FAIR      91  73  55 CALM      29.87F HX 100
MANASSAS*      SUNNY     91  72  52 VRB5      29.86  HX  98
GAITHERSBURG*  PTSUNNY   90  73  58 CALM      29.90F HX  98

$$

MDZ006>007-011-014-281900-
BALTIMORE METRO

CITY           SKY/WX    TMP DP  RH WIND       PRES   REMARKS
BWI AIRPORT    MOSUNNY   93  73  52 SW10      29.83F HX 102
MD SCIENCE CTR   N/A     91  74  57 MISG      29.83F HX 100
MARTIN STATE   PTSUNNY   90  79  70 SE7       29.85F HX 105
ANNAPOLIS      MOSUNNY   90  76  63 S9        29.83F HX 101
FORT MEADE*    MOSUNNY   90  73  58 S5        29.86F HX  98

$$

MDZ012-015-019>023-281900-
MARYLAND EASTERN SHORE

CITY           SKY/WX    TMP DP  RH WIND       PRES   REMARKS
OCEAN CITY     CLOUDY    81  79  94 CALM      29.89F HX  90
SALISBURY      NOT AVBL
CAMBRIDGE*     MOSUNNY   90  77  66 SW7       29.84F HX 102
EASTON*        PTSUNNY   86  77  74 E7        29.89F HX  97

$$

MDZ017>025-281900-
SOUTHERN MARYLAND

CITY           SKY/WX    TMP DP  RH WIND       PRES   REMARKS
PATUXENT RIVER MOSUNNY   91  74  57 VRB6G16   29.84F HX 100
ST INIGOES     MOSUNNY   91  79  67 SE8       29.84F HX 107
LEONARDTOWN*     N/A     88  72  58 S9        29.86F HX  94

$$

MDZ003>005-281900-
NORTH CENTRAL MARYLAND

CITY           SKY/WX    TMP DP  RH WIND       PRES   REMARKS
FREDERICK*     SUNNY     90  73  58 CALM      29.88F HX  98
HAGERSTOWN APT RAIN      82  71  69 NW6       29.91R

$$

MDZ501>502-281900-
WESTERN MARYLAND

CITY           SKY/WX    TMP DP  RH WIND       PRES   REMARKS
OAKLAND*       CLOUDY    64  64 100 CALM      30.03F FOG
CUMBERLAND*    CLOUDY    70  70 100 CALM      29.99F

$$

VAZ025>031-281900-
SHENANDOAH VALLEY

CITY           SKY/WX    TMP DP  RH WIND       PRES   REMARKS
WINCHESTER*    PTSUNNY   86  68  54 E5        29.88F HAZE
FRONT ROYAL*   FAIR      90  75  62 E6        29.87F HX 100
LURAY*         NOT AVBL
NEW MARKET*    FAIR     N/A N/A N/A CALM      29.86F
STAUNTON*      PTSUNNY   86  71  60 S3        29.92F HX  91
WAYNESBORO*    MOCLDY    87  70  57 CALM      29.92F HX  92

$$

WVZ021-048>050-054>055-281900-
EASTERN WEST VIRGINIA PANHANDLE

CITY           SKY/WX    TMP DP  RH WIND       PRES   REMARKS
MARTINSBURG    LGT RAIN  72  68  87 N9        29.91R
PETERSBURG*    CLOUDY    75  71  89 NE12G22   29.93R

$$

VAZ036>039-050-281900-
CENTRAL FOOTHILLS

CITY           SKY/WX    TMP DP  RH WIND       PRES   REMARKS
CHARLOTTESVILL FAIR      93  72  50 CALM      29.87F HX 101
CULPEPER*      FAIR      89  75  63 E3        29.87F HX 100
ORANGE*          N/A     90  70  51 CALM      29.89F HX  95
GORDONSVILLE*  FAIR      91  75  60 S3        29.86F HX 101
WARRENTON*     FAIR      92  68  45 S5        29.86F HX  96

$$

VAZ055>057-281900-
NORTH AND CENTRAL PIEDMONT

CITY           SKY/WX    TMP DP  RH WIND       PRES   REMARKS
FREDERICKSBRG*   N/A     91  75  59 CALM      29.84F HX 102
STAFFORD*      FAIR      90  73  56 SW3       29.89F HX  98

$$

NCZ024-NYZ072-PAZ021-071-VAZ022-071-281900-
OTHER REGIONAL OBSERVATIONS

CITY           SKY/WX    TMP DP  RH WIND       PRES   REMARKS
NEW YORK CITY  SUNNY     95  56  26 VRB5      29.89F HX  93
PHILADELPHIA   CLOUDY    95  68  41 E8        29.84F THUNDER HX  99
PITTSBURGH     LGT RAIN  72  67  84 SW6       29.94S
ROANOKE        FAIR      91  67  44 VRB3      29.93F HX  94
RICHMOND       FAIR      91  74  57 S8        29.85F HX 100
RALEIGH        MOSUNNY   95  74  50 SW10      29.90F HX 105

$$

ANZ530>537-281900-
MARINE OBSERVATIONS

STATION/POSITION TIME  TEMP    WIND        PRES
                       AIR SEA DIR/SP/G
                 (UTC) (F)     (DEG/KT/KT) (MB)
THOMAS PT LIGHT  1800   86 86  190/  9/  9 1011.8F
BALT KEY BRIDGE  1736   86     100/ 10/ 10 1010.1F
COVE POINT       1736   84     190/ 11/ 13 1011.3F
LEWISETTA        1736   88 88   70/  3/  5 1010.4F
SOLOMONS ISLAND  1736   87 86  190/  9/ 11   N/A
PINEY POINT      1748          130/  6/  6   N/A

$$





USA.gov is the U.S. government's official web portal to all federal, state and local government web resources and services.